Regional Weather Roundup
Issued by NWS

Home | Current Version | Previous Version | Graphics & Text | Print | Product List | Glossary On
Versions: 1 2 3 4 5 6 7 8 9 10 11 12 13 14 15 16 17 18 19 20 21 22 23 24 25 26 27 28 29 30 31 32 33 34 35 36 37 38 39 40 41 42 43 44 45 46 47 48 49 50
000
ASUS43 KOAX 270310
RWRNE

WEATHER ROUNDUP FOR NEBRASKA
NATIONAL WEATHER SERVICE OMAHA NE
1000 PM CDT SUN APR 26 2015

NOTES: SATELLITE DATA IS BEING USED TO AUGMENT CLOUD COVER ABOVE
       12000 FEET.
       "FAIR" INDICATES FEW OR NO CLOUDS BELOW 12,000 FEET WITH NO
       SIGNIFICANT WEATHER AND/OR OBSTRUCTIONS TO VISIBILITY.

  * THESE STATIONS DO NOT REPORT WEATHER SUCH AS RAIN...SNOW OR FOG.

NEZ001>004-019>022-054>056-270400-
NEBRASKA PANHANDLE

CITY           SKY/WX    TMP DP  RH WIND       PRES   REMARKS
SCOTTSBLUFF    CLOUDY    45 N/A N/A E10       30.10R
ALLIANCE       CLOUDY    42  38  85 CALM      30.08R
CHADRON        CLOUDY    48  40  73 SE5       30.10R
KIMBALL        LGT RAIN  40  40  99 SE10      30.06R WCI  33
SIDNEY         CLOUDY    42  41  96 E7        30.09R FOG
$$

NEZ057>060-069>072-079>082-270400-
SOUTHWEST NEBRASKA

CITY           SKY/WX    TMP DP  RH WIND       PRES   REMARKS
IMPERIAL       CLOUDY    47  42  83 E8        30.08R
LEXINGTON      CLOUDY    48  43  81 E7        30.07R
MCCOOK         CLOUDY    51  43  74 NE7       30.06R
OGALLALA       PTCLDY    46  42  86 CALM      30.08R
$$

NEZ005>010-023>029-035>040-094-270400-
NORTH CENTRAL NEBRASKA

CITY           SKY/WX    TMP DP  RH WIND       PRES   REMARKS
VALENTINE      PTCLDY    49  32  52 NE5       30.09R
AINSWORTH      PTCLDY    49  28  45 E6        30.09R
BROKEN BOW     PTCLDY    40  34  79 CALM      30.08R
O`NEILL        CLEAR     50  34  53 CALM      30.08R
ORD            CLEAR     45  34  65 CALM      30.07R
THEDFORD       PTCLDY    48  38  70 SE5       30.09R
$$

NEZ041-046>049-061>064-073>077-083>087-270400-
SOUTH CENTRAL NEBRASKA

CITY           SKY/WX    TMP DP  RH WIND       PRES   REMARKS
GRAND ISLAND   CLEAR     45  39  79 E6        30.09R
AURORA         CLEAR     47  41  79 E6        30.08R
HASTINGS       CLEAR     48  41  76 E6        30.07R
HEBRON         CLEAR     47  38  71 NE6       30.05R
HOLDREGE       MOCLDY    50  42  75 NE7       30.07R
KEARNEY *      PTCLDY    45  39  81 NE7       30.08R
YORK           CLEAR     46  39  76 E6        30.09R
$$

NEZ011>018-030>034-042>045-270400-
NORTHEAST NEBRASKA

CITY           SKY/WX    TMP DP  RH WIND       PRES   REMARKS
NORFOLK        CLEAR     53  33  46 CALM      30.06R
ALBION         CLEAR     46  34  63 CALM      30.08R
BLAIR          CLEAR     51  33  51 E5        30.06R
COLUMBUS *     CLEAR     48  34  57 CALM      30.09R
FREMONT        CLEAR     55  36  48 CALM      30.06R
TEKAMAH        CLEAR     50  35  56 E8        30.05R
WAYNE          CLEAR     47  33  57 CALM      30.07R
$$

NEZ050>053-065>068-078-088>093-270400-
SOUTHEAST NEBRASKA

CITY           SKY/WX    TMP DP  RH WIND       PRES   REMARKS
LINCOLN        CLEAR     54  36  50 SE6       30.09R
OMAHA EPPLEY   PTCLDY    54  34  46 E6        30.06R
BEATRICE       CLEAR     51  37  59 NE7       30.06R
FALLS CITY     CLEAR     52  34  50 NE6       30.04R
NEBRASKA CITY  CLEAR     52  28  39 E3        30.08R
PLATTSMOUTH    CLEAR     52  32  47 E3        30.07R
$$

NEZ044-045-051>053-067-270400-
OMAHA AREA

CITY           SKY/WX    TMP DP  RH WIND       PRES   REMARKS
OMAHA EPPLEY   PTCLDY    54  34  46 E6        30.06R
BLAIR          CLEAR     51  33  51 E5        30.06R
FREMONT        CLEAR     55  36  48 CALM      30.06R
MILLARD        CLEAR     54  36  49 CALM      30.06R
OFFUTT AFB     CLEAR     48  36  64 E3        30.06R
PLATTSMOUTH    CLEAR     52  32  47 E3        30.07R
WAHOO          FAIR      48  37  64 CALM      30.07R
$$



USA.gov is the U.S. government's official web portal to all federal, state and local government web resources and services.